Dobrodošli na spletni strani vremenske postaje Senovo. Vse informacije so informativnega značaja, saj vremenska postaja ni del državne mreže meteoroloških postaj. AKTUALNIH OBVESTIL NI.


Sneg/Led Od: 21-02-2018 00:00 Do: 23-02-2018 23:59 Opozorilo za: Sneg/Led Stopnja: Rumena info button
Veter Od: 21-02-2018 00:00 Do: 22-02-2018 23:59 Opozorilo za: Veter Stopnja: Rumena info button

Pogled proti Armezu več informacij Pogled proti Armezu


Lisca več informacij Lisca


Radar strel več informacij blitzortung!


opozorilo za sneg/led več informacij rain snow radar


Obiščite še:

Template documentation
and downloads

And another site



Weather Underground, zgodovina - Tekstovno

Dnevni povzetek za Januar 29, 2018 Enote:  Angleško    Metrično   Obe
« Predhodni Dan
Naslednji Dan »
Dnevni Tedenski Mesečni Letni Po meri
  Višja: Nižja: Povprečje:
Temperatura: TemperatureC °F -1.1 °F 2.3 °F
Točka rosišča: DewpointC °F -2.3 °F 1.1 °F
Vlažnost: Humidity % 82 % 92 %
Hitrost vetra: WindSpeedKMH mph 0.0 mph 0.8 mph
Sunki vetra: WindSpeedGustKMH mph - -
Veter:- - SSW
Zračni tlak: PressurehPa in 1021.9 in -
Padavine: 0.0 in    
Historical Graphs
 
 
Tabelarni podarki za Januar 29, 2018
Čas Temperatura Točka rosišča Zračni tlak Veter Hitrost vetra Sunki vetra Vlažnost Intenziteta padavin (urna)
TemperatureC °F DewpointC °F PressurehPa in Calm     Humidity % HourlyPrecipMM in
00:04 0.5 °F -0.5 °F 1031.0 in Calm     93 % 0.0 in
00:09 0.6 °F -0.4 °F 1031.0 in Calm     93 % 0.0 in
00:14 0.6 °F -0.3 °F 1032.1 in Calm     94 % 0.0 in
00:19 0.6 °F -0.3 °F 1032.1 in Calm     94 % 0.0 in
00:24 0.6 °F -0.3 °F 1032.1 in Calm     94 % 0.0 in
00:29 0.6 °F -0.3 °F 1032.1 in Calm     94 % 0.0 in
00:34 0.6 °F -0.3 °F 1032.1 in Calm     94 % 0.0 in
00:39 0.7 °F -0.2 °F 1032.1 in Calm     94 % 0.0 in
00:44 0.7 °F -0.2 °F 1030.0 in Calm     94 % 0.0 in
00:49 0.7 °F -0.2 °F 1030.0 in Calm     94 % 0.0 in
00:54 0.7 °F -0.2 °F 1030.0 in Calm     94 % 0.0 in
00:59 0.7 °F -0.2 °F 1032.1 in Calm     94 % 0.0 in
01:04 0.6 °F -0.3 °F 1032.1 in Calm     94 % 0.0 in
01:09 0.6 °F -0.3 °F 1032.1 in Calm     94 % 0.0 in
01:14 0.6 °F -0.3 °F 1032.1 in Calm     94 % 0.0 in
01:19 0.6 °F -0.1 °F 1032.1 in WNW 0.3 mph 4.0 mph 95 % 0.0 in
01:24 0.6 °F -0.1 °F 1032.1 in WNW 0.5 mph 4.0 mph 95 % 0.0 in
01:29 0.6 °F -0.1 °F 1030.0 in North 0.2 mph   95 % 0.0 in
01:34 0.6 °F -0.1 °F 1030.0 in Calm     95 % 0.0 in
01:39 0.5 °F -0.2 °F 1030.0 in Calm     95 % 0.0 in
01:44 0.5 °F -0.2 °F 1031.0 in NW 0.2 mph 3.2 mph 95 % 0.0 in
01:49 0.4 °F -0.3 °F 1031.0 in NW 0.5 mph 3.2 mph 95 % 0.0 in
01:54 0.4 °F -0.3 °F 1031.0 in NW 0.3 mph 2.1 mph 95 % 0.0 in
01:59 0.4 °F -0.3 °F 1032.1 in Calm     95 % 0.0 in
02:04 0.4 °F -0.3 °F 1032.1 in Calm     95 % 0.0 in
02:09 0.4 °F -0.3 °F 1032.1 in Calm     95 % 0.0 in
02:14 0.4 °F -0.3 °F 1032.1 in Calm     95 % 0.0 in
02:19 0.3 °F -0.4 °F 1032.1 in Calm     95 % 0.0 in
02:24 0.3 °F -0.4 °F 1032.1 in Calm     95 % 0.0 in
02:29 0.3 °F -0.4 °F 1031.0 in Calm     95 % 0.0 in
02:34 0.2 °F -0.5 °F 1031.0 in Calm     95 % 0.0 in
02:39 0.2 °F -0.5 °F 1031.0 in Calm     95 % 0.0 in
02:44 0.1 °F -0.6 °F 1031.0 in Calm     95 % 0.0 in
02:49 0.1 °F -0.6 °F 1031.0 in Calm     95 % 0.0 in
02:54 0.1 °F -0.6 °F 1031.0 in Calm     95 % 0.0 in
02:59 0.1 °F -0.6 °F 1031.0 in SW 0.2 mph 2.6 mph 95 % 0.0 in
03:04 0.0 °F -0.7 °F 1031.0 in SW 0.5 mph 2.6 mph 95 % 0.0 in
03:09 0.0 °F -0.7 °F 1031.0 in WSW 0.3 mph 2.6 mph 95 % 0.0 in
03:14 0.0 °F -0.7 °F 1031.0 in Calm     95 % 0.0 in
03:19 -0.1 °F -0.8 °F 1031.0 in Calm     95 % 0.0 in
03:24 -0.1 °F -0.8 °F 1031.0 in Calm     95 % 0.0 in
03:29 -0.1 °F -0.8 °F 1031.0 in Calm     95 % 0.0 in
03:34 -0.1 °F -0.8 °F 1031.0 in Calm     95 % 0.0 in
03:39 -0.1 °F -0.8 °F 1031.0 in Calm     95 % 0.0 in
03:44 -0.1 °F -0.8 °F 1030.0 in Calm     95 % 0.0 in
03:49 -0.1 °F -0.8 °F 1030.0 in West 0.2 mph 4.0 mph 95 % 0.0 in
03:54 -0.1 °F -0.8 °F 1030.0 in West 1.8 mph 4.3 mph 95 % 0.0 in
03:59 -0.1 °F -0.8 °F 1030.0 in West 1.8 mph 4.3 mph 95 % 0.0 in
04:04 -0.1 °F -0.8 °F 1030.0 in West 1.1 mph 4.0 mph 95 % 0.0 in
04:09 -0.1 °F -0.8 °F 1030.0 in WSW 2.3 mph 4.0 mph 95 % 0.0 in
04:14 -0.1 °F -0.8 °F 1030.0 in SW 1.3 mph 4.0 mph 95 % 0.0 in
04:19 -0.2 °F -0.9 °F 1030.0 in SW 0.2 mph 2.6 mph 95 % 0.0 in
04:24 -0.2 °F -0.9 °F 1030.0 in SW 0.2 mph 2.6 mph 95 % 0.0 in
04:29 -0.2 °F -0.9 °F 1030.0 in Calm     95 % 0.0 in
04:34 -0.2 °F -0.9 °F 1030.0 in Calm     95 % 0.0 in
04:39 -0.2 °F -0.9 °F 1030.0 in Calm     95 % 0.0 in
04:44 -0.2 °F -0.9 °F 1030.0 in Calm     95 % 0.0 in
04:49 -0.3 °F -1.0 °F 1030.0 in Calm     95 % 0.0 in
04:54 -0.3 °F -1.0 °F 1030.0 in Calm     95 % 0.0 in
04:59 -0.3 °F -1.0 °F 1030.0 in Calm     95 % 0.0 in
05:04 -0.2 °F -0.9 °F 1030.0 in Calm     95 % 0.0 in
05:09 -0.2 °F -0.9 °F 1030.0 in Calm     95 % 0.0 in
05:14 -0.2 °F -0.9 °F 1030.0 in Calm     95 % 0.0 in
05:19 -0.3 °F -1.0 °F 1030.0 in Calm     95 % 0.0 in
05:24 -0.3 °F -1.0 °F 1030.0 in Calm     95 % 0.0 in
05:29 -0.3 °F -1.0 °F 1029.0 in Calm     95 % 0.0 in
05:34 -0.3 °F -1.0 °F 1029.0 in Calm     95 % 0.0 in
05:39 -0.4 °F -1.1 °F 1029.0 in Calm     95 % 0.0 in
05:44 -0.4 °F -1.1 °F 1029.0 in Calm     95 % 0.0 in
05:49 -0.5 °F -1.2 °F 1029.0 in Calm     95 % 0.0 in
05:54 -0.5 °F -1.2 °F 1029.0 in Calm     95 % 0.0 in
05:59 -0.5 °F -1.2 °F 1030.0 in Calm     95 % 0.0 in
06:04 -0.5 °F -1.2 °F 1030.0 in Calm     95 % 0.0 in
06:09 -0.5 °F -1.2 °F 1030.0 in Calm     95 % 0.0 in
06:14 -0.6 °F -1.3 °F 1030.0 in Calm     95 % 0.0 in
06:19 -0.6 °F -1.3 °F 1030.0 in Calm     95 % 0.0 in
06:24 -0.6 °F -1.3 °F 1030.0 in Calm     95 % 0.0 in
06:29 -0.6 °F -1.3 °F 1029.0 in Calm     95 % 0.0 in
06:34 -0.7 °F -1.4 °F 1029.0 in Calm     95 % 0.0 in
06:39 -0.7 °F -1.4 °F 1029.0 in Calm     95 % 0.0 in
06:44 -0.8 °F -1.5 °F 1030.0 in Calm     95 % 0.0 in
06:49 -0.8 °F -1.5 °F 1030.0 in Calm     95 % 0.0 in
06:54 -0.9 °F -1.6 °F 1030.0 in Calm     95 % 0.0 in
06:59 -0.9 °F -1.6 °F 1030.0 in ENE 1.0 mph 4.3 mph 95 % 0.0 in
07:04 -0.9 °F -1.6 °F 1030.0 in ENE 1.0 mph 4.3 mph 95 % 0.0 in
07:09 -0.9 °F -1.6 °F 1030.0 in WSW 0.2 mph 2.1 mph 95 % 0.0 in
07:14 -1.0 °F -1.6 °F 1031.0 in WSW 0.8 mph 4.0 mph 96 % 0.0 in
07:19 -1.0 °F -1.6 °F 1031.0 in WSW 0.6 mph 4.0 mph 96 % 0.0 in
07:24 -1.0 °F -1.6 °F 1031.0 in Calm     96 % 0.0 in
07:29 -1.0 °F -1.6 °F 1031.0 in Calm     96 % 0.0 in
07:34 -1.0 °F -1.6 °F 1031.0 in Calm   1.8 mph 96 % 0.0 in
07:39 -1.0 °F -1.6 °F 1031.0 in NW 0.3 mph 3.2 mph 96 % 0.0 in
07:44 -1.0 °F -1.6 °F 1031.0 in West 1.0 mph 4.3 mph 96 % 0.0 in
07:49 -1.0 °F -1.6 °F 1031.0 in West 2.4 mph 4.3 mph 96 % 0.0 in
07:54 -1.1 °F -1.7 °F 1031.0 in West 2.6 mph 4.0 mph 96 % 0.0 in
07:59 -1.1 °F -1.7 °F 1031.0 in West 1.4 mph 3.5 mph 96 % 0.0 in
08:04 -1.1 °F -1.7 °F 1031.0 in NW 0.5 mph 3.2 mph 96 % 0.0 in
08:09 -1.0 °F -1.6 °F 1031.0 in ENE 0.2 mph 3.2 mph 96 % 0.0 in
08:14 -1.0 °F -1.6 °F 1031.0 in ENE 0.3 mph 3.2 mph 96 % 0.0 in
08:19 -1.0 °F -1.6 °F 1031.0 in ENE 0.2 mph 1.4 mph 96 % 0.0 in
08:24 -0.9 °F -1.6 °F 1031.0 in Calm     95 % 0.0 in
08:29 -0.9 °F -1.6 °F 1031.0 in Calm     95 % 0.0 in
08:34 -0.8 °F -1.5 °F 1031.0 in Calm     95 % 0.0 in
08:39 -0.7 °F -1.3 °F 1031.0 in Calm     96 % 0.0 in
08:44 -0.6 °F -1.2 °F 1031.0 in Calm     96 % 0.0 in
08:49 -0.6 °F -1.2 °F 1031.0 in Calm     96 % 0.0 in
08:54 -0.6 °F -1.2 °F 1031.0 in NNW 0.2 mph 1.8 mph 96 % 0.0 in
08:59 -0.5 °F -1.1 °F 1031.0 in ENE 0.2 mph 2.6 mph 96 % 0.0 in
09:04 -0.5 °F -1.1 °F 1031.0 in East 0.8 mph 4.0 mph 96 % 0.0 in
09:09 -0.4 °F -0.9 °F 1031.0 in East 1.8 mph 4.0 mph 96 % 0.0 in
09:14 -0.2 °F -0.8 °F 1031.0 in East 1.0 mph 4.0 mph 96 % 0.0 in
09:19 -0.2 °F -0.8 °F 1031.0 in Calm     96 % 0.0 in
09:24 -0.2 °F -0.8 °F 1031.0 in Calm     96 % 0.0 in
09:29 0.0 °F -0.6 °F 1031.0 in Calm   2.6 mph 96 % 0.0 in
09:34 0.1 °F -0.4 °F 1031.0 in ENE 0.6 mph 4.3 mph 96 % 0.0 in
09:39 0.2 °F -0.4 °F 1031.0 in East 1.3 mph 4.3 mph 96 % 0.0 in
09:44 0.3 °F -0.3 °F 1031.0 in SE 0.5 mph 2.6 mph 96 % 0.0 in
09:49 0.3 °F -0.3 °F 1031.0 in Calm   1.8 mph 96 % 0.0 in
09:54 0.5 °F -0.1 °F 1031.0 in Calm   4.7 mph 96 % 0.0 in
09:59 0.7 °F 0.3 °F 1030.0 in SW 1.9 mph 4.7 mph 97 % 0.0 in
10:04 0.8 °F 0.4 °F 1030.0 in SW 3.1 mph 5.0 mph 97 % 0.0 in
10:10 1.0 °F 0.4 °F 1030.0 in SSW 2.3 mph 5.0 mph 96 % 0.0 in
10:15 1.2 °F 0.8 °F 1030.0 in South 2.3 mph 5.0 mph 97 % 0.0 in
10:20 1.4 °F 1.0 °F 1030.0 in South 1.8 mph 5.0 mph 97 % 0.0 in
10:25 1.4 °F 1.0 °F 1030.0 in SSE 1.6 mph 4.3 mph 97 % 0.0 in
10:30 1.6 °F 1.2 °F 1030.0 in South 2.9 mph 5.5 mph 97 % 0.0 in
10:35 1.7 °F 1.3 °F 1030.0 in SSW 4.2 mph 5.8 mph 97 % 0.0 in
10:40 1.9 °F 1.5 °F 1030.0 in SSW 4.5 mph 6.1 mph 97 % 0.0 in
10:45 2.0 °F 1.6 °F 1030.0 in SSW 3.5 mph 6.1 mph 97 % 0.0 in
10:50 2.2 °F 1.8 °F 1030.0 in South 2.4 mph 4.7 mph 97 % 0.0 in
10:55 2.3 °F 1.9 °F 1030.0 in South 1.8 mph 4.7 mph 97 % 0.0 in
11:00 2.3 °F 1.9 °F 1030.0 in ESE 1.0 mph 3.2 mph 97 % 0.0 in
11:05 2.4 °F 2.0 °F 1030.0 in East 1.3 mph 4.0 mph 97 % 0.0 in
11:10 2.4 °F 2.0 °F 1030.0 in East 1.4 mph 4.0 mph 97 % 0.0 in
11:15 2.6 °F 2.2 °F 1029.0 in SSE 1.6 mph 4.0 mph 97 % 0.0 in
11:20 2.8 °F 2.4 °F 1029.0 in South 0.8 mph 4.0 mph 97 % 0.0 in
11:25 2.8 °F 2.4 °F 1029.0 in NW 0.2 mph 2.1 mph 97 % 0.0 in
11:30 3.0 °F 2.6 °F 1028.0 in NW 0.2 mph 2.1 mph 97 % 0.0 in
11:35 3.2 °F 2.8 °F 1028.0 in Calm     97 % 0.0 in
11:40 3.4 °F 2.9 °F 1028.0 in SE 1.3 mph 5.0 mph 97 % 0.0 in
11:45 3.5 °F 3.1 °F 1028.0 in ESE 2.9 mph 5.5 mph 97 % 0.0 in
11:50 3.7 °F 3.3 °F 1028.0 in ESE 3.1 mph 5.5 mph 97 % 0.0 in
11:55 3.8 °F 3.4 °F 1028.0 in ESE 3.1 mph 4.7 mph 97 % 0.0 in
12:00 4.1 °F 3.7 °F 1029.0 in ESE 3.4 mph 5.0 mph 97 % 0.0 in
12:05 4.4 °F 3.9 °F 1029.0 in ESE 2.6 mph 5.0 mph 97 % 0.0 in
12:10 4.7 °F 4.3 °F 1029.0 in ESE 2.9 mph 5.0 mph 97 % 0.0 in
12:15 5.0 °F 4.6 °F 1029.0 in ESE 3.2 mph 5.0 mph 97 % 0.0 in
12:20 5.3 °F 4.9 °F 1029.0 in ESE 3.2 mph 5.8 mph 97 % 0.0 in
12:25 5.7 °F 5.3 °F 1029.0 in ESE 3.4 mph 5.8 mph 97 % 0.0 in
12:30 5.9 °F 5.4 °F 1028.0 in ESE 3.2 mph 5.5 mph 97 % 0.0 in
12:35 6.2 °F 5.8 °F 1028.0 in SE 3.5 mph 5.5 mph 97 % 0.0 in
12:40 6.7 °F 6.3 °F 1028.0 in SSE 3.2 mph 5.0 mph 97 % 0.0 in
12:45 7.0 °F 6.6 °F 1028.0 in SSE 2.7 mph 4.7 mph 97 % 0.0 in
12:50 7.4 °F 6.9 °F 1028.0 in SE 3.1 mph 5.0 mph 97 % 0.0 in
12:55 7.6 °F 7.2 °F 1028.0 in SE 3.5 mph 5.5 mph 97 % 0.0 in
13:00 7.8 °F 7.3 °F 1028.0 in ESE 4.2 mph 6.1 mph 97 % 0.0 in
13:05 8.0 °F 7.6 °F 1028.0 in SE 3.9 mph 6.1 mph 97 % 0.0 in
13:10 8.2 °F 7.8 °F 1027.0 in SE 2.7 mph 5.8 mph 97 % 0.0 in
13:15 8.4 °F 7.9 °F 1027.0 in SE 2.4 mph 4.7 mph 97 % 0.0 in
13:20 8.4 °F 7.9 °F 1027.0 in ESE 3.1 mph 4.7 mph 97 % 0.0 in
13:25 8.6 °F 8.2 °F 1026.0 in ESE 3.7 mph 5.5 mph 97 % 0.0 in
13:30 8.7 °F 8.3 °F 1026.0 in ESE 3.9 mph 6.1 mph 97 % 0.0 in
13:35 8.8 °F 8.3 °F 1026.0 in ESE 4.0 mph 6.1 mph 97 % 0.0 in
13:40 9.0 °F 8.4 °F 1027.0 in SSE 3.5 mph 6.1 mph 96 % 0.0 in
13:45 9.1 °F 8.5 °F 1027.0 in SSE 3.2 mph 6.1 mph 96 % 0.0 in
13:50 9.2 °F 8.6 °F 1027.0 in South 3.1 mph 4.7 mph 96 % 0.0 in
13:55 9.4 °F 8.8 °F 1027.0 in South 2.9 mph 5.0 mph 96 % 0.0 in
14:00 9.6 °F 9.0 °F 1027.0 in SSE 2.4 mph 5.0 mph 96 % 0.0 in
14:05 9.7 °F 9.1 °F 1027.0 in SSE 2.4 mph 4.7 mph 96 % 0.0 in
14:10 9.8 °F 9.2 °F 1026.0 in SSE 3.5 mph 5.8 mph 96 % 0.0 in
14:15 10.0 °F 9.2 °F 1026.0 in SSE 3.9 mph 5.8 mph 95 % 0.0 in
14:20 10.1 °F 9.3 °F 1026.0 in SSE 4.0 mph 6.1 mph 95 % 0.0 in
14:25 10.2 °F 9.4 °F 1026.0 in SSE 4.3 mph 7.6 mph 95 % 0.0 in
14:30 10.4 °F 9.5 °F 1026.0 in SSE 4.2 mph 7.6 mph 94 % 0.0 in
14:35 10.5 °F 9.6 °F 1026.0 in SSE 3.5 mph 6.1 mph 94 % 0.0 in
14:40 10.6 °F 9.7 °F 1026.0 in SSE 3.1 mph 6.1 mph 94 % 0.0 in
14:45 10.8 °F 9.7 °F 1026.0 in South 1.8 mph 4.7 mph 93 % 0.0 in
14:50 10.8 °F 9.7 °F 1026.0 in South 0.8 mph 4.0 mph 93 % 0.0 in
14:55 11.1 °F 9.8 °F 1024.9 in South 1.9 mph 7.6 mph 92 % 0.0 in
15:00 11.3 °F 10.1 °F 1024.9 in SSW 4.3 mph 7.6 mph 92 % 0.0 in
15:05 11.4 °F 10.2 °F 1024.9 in SSW 5.0 mph 7.6 mph 92 % 0.0 in
15:10 11.4 °F 10.0 °F 1024.9 in SSW 4.3 mph 7.9 mph 91 % 0.0 in
15:15 11.2 °F 9.6 °F 1024.9 in SW 2.6 mph 7.9 mph 90 % 0.0 in
15:20 11.2 °F 9.4 °F 1024.9 in NW 0.5 mph 3.5 mph 89 % 0.0 in
15:25 11.1 °F 9.2 °F 1024.9 in North 0.2 mph   88 % 0.0 in
15:30 10.7 °F 8.6 °F 1024.9 in WNW 0.6 mph 4.7 mph 87 % 0.0 in
15:35 10.4 °F 8.2 °F 1024.9 in WNW 0.8 mph 4.7 mph 86 % 0.0 in
15:40 10.0 °F 7.6 °F 1024.9 in WNW 0.5 mph 3.2 mph 85 % 0.0 in
15:45 9.5 °F 7.1 °F 1024.9 in WNW 1.0 mph 4.3 mph 85 % 0.0 in
15:50 9.2 °F 6.6 °F 1024.9 in WNW 1.0 mph 4.3 mph 84 % 0.0 in
15:55 8.8 °F 6.2 °F 1026.0 in NW 0.5 mph 4.7 mph 84 % 0.0 in
16:00 8.5 °F 5.8 °F 1026.0 in NW 0.5 mph 4.7 mph 83 % 0.0 in
16:05 8.2 °F 5.3 °F 1026.0 in North 0.2 mph   82 % 0.0 in
16:10 7.9 °F 5.0 °F 1024.9 in Calm     82 % 0.0 in
16:15 7.7 °F 4.8 °F 1024.9 in NW 1.0 mph 5.8 mph 82 % 0.0 in
16:20 7.5 °F 4.6 °F 1024.9 in NW 2.6 mph 5.8 mph 82 % 0.0 in
16:25 7.3 °F 4.4 °F 1024.9 in WNW 2.3 mph 5.5 mph 82 % 0.0 in
16:30 7.0 °F 4.1 °F 1024.9 in WNW 0.6 mph 4.0 mph 82 % 0.0 in
16:35 6.7 °F 3.8 °F 1024.9 in NW 0.5 mph 4.7 mph 82 % 0.0 in
16:41 6.5 °F 3.7 °F 1024.9 in NW 1.0 mph 4.7 mph 82 % 0.0 in
16:47 6.2 °F 3.3 °F 1024.9 in Calm     82 % 0.0 in
16:52 5.9 °F 3.1 °F 1024.9 in Calm   1.4 mph 82 % 0.0 in
16:57 5.8 °F 2.9 °F 1023.9 in Calm   1.4 mph 82 % 0.0 in
17:02 5.6 °F 2.8 °F 1023.9 in Calm     82 % 0.0 in
17:07 5.3 °F 2.5 °F 1023.9 in Calm     82 % 0.0 in
17:12 5.3 °F 2.5 °F 1023.9 in Calm     82 % 0.0 in
17:17 5.0 °F 2.2 °F 1023.9 in Calm     82 % 0.0 in
17:22 4.7 °F 2.1 °F 1023.9 in Calm   1.4 mph 83 % 0.0 in
17:27 4.6 °F 1.9 °F 1024.9 in NW 0.3 mph 3.5 mph 83 % 0.0 in
17:32 4.4 °F 1.8 °F 1024.9 in NW 0.3 mph 3.5 mph 83 % 0.0 in
17:38 4.3 °F 1.7 °F 1024.9 in Calm     83 % 0.0 in
17:43 4.1 °F 1.4 °F 1023.9 in NW 0.3 mph 4.0 mph 83 % 0.0 in
17:48 3.9 °F 1.3 °F 1023.9 in NW 0.5 mph 4.0 mph 83 % 0.0 in
17:53 3.7 °F 1.2 °F 1023.9 in North 0.2 mph   84 % 0.0 in
17:58 3.6 °F 1.2 °F 1023.9 in Calm     84 % 0.0 in
18:03 3.5 °F 1.1 °F 1023.9 in Calm     84 % 0.0 in
18:08 3.4 °F 0.9 °F 1023.9 in Calm     84 % 0.0 in
18:13 3.3 °F 0.8 °F 1023.9 in Calm     84 % 0.0 in
18:18 3.1 °F 0.7 °F 1023.9 in Calm     84 % 0.0 in
18:23 3.0 °F 0.6 °F 1023.9 in NW 0.2 mph 3.5 mph 84 % 0.0 in
18:28 2.8 °F 0.5 °F 1023.9 in NW 0.2 mph 3.5 mph 85 % 0.0 in
18:33 2.8 °F 0.5 °F 1023.9 in Calm     85 % 0.0 in
18:38 2.6 °F 0.3 °F 1023.9 in Calm     85 % 0.0 in
18:43 2.6 °F 0.3 °F 1023.9 in Calm     85 % 0.0 in
18:48 2.4 °F 0.1 °F 1023.9 in Calm     85 % 0.0 in
18:53 2.3 °F 0.1 °F 1023.9 in Calm     85 % 0.0 in
18:58 2.3 °F 0.2 °F 1023.9 in Calm     86 % 0.0 in
19:03 2.2 °F 0.1 °F 1023.9 in Calm     86 % 0.0 in
19:08 2.1 °F 0.0 °F 1023.9 in Calm     86 % 0.0 in
19:13 2.0 °F -0.1 °F 1023.9 in Calm     86 % 0.0 in
19:18 2.0 °F -0.1 °F 1023.9 in Calm     86 % 0.0 in
19:23 1.9 °F -0.1 °F 1023.9 in Calm     87 % 0.0 in
19:28 1.8 °F -0.1 °F 1023.9 in Calm     87 % 0.0 in
19:33 1.8 °F -0.1 °F 1023.9 in Calm     87 % 0.0 in
19:38 1.7 °F -0.2 °F 1023.9 in Calm     87 % 0.0 in
19:43 1.6 °F -0.3 °F 1023.9 in Calm     87 % 0.0 in
19:48 1.5 °F -0.4 °F 1023.9 in Calm     87 % 0.0 in
19:53 1.4 °F -0.6 °F 1023.9 in Calm     87 % 0.0 in
19:58 1.3 °F -0.6 °F 1023.9 in Calm     87 % 0.0 in
20:03 1.3 °F -0.6 °F 1023.9 in Calm     87 % 0.0 in
20:08 1.2 °F -0.7 °F 1023.9 in Calm     87 % 0.0 in
20:13 1.1 °F -0.8 °F 1023.9 in Calm     87 % 0.0 in
20:18 1.0 °F -0.8 °F 1023.9 in Calm     88 % 0.0 in
20:24 1.0 °F -0.8 °F 1023.9 in Calm     88 % 0.0 in
20:28 0.9 °F -0.9 °F 1023.9 in Calm     88 % 0.0 in
20:33 0.9 °F -0.9 °F 1023.9 in Calm     88 % 0.0 in
20:39 0.8 °F -0.9 °F 1023.9 in Calm     88 % 0.0 in
20:43 0.8 °F -0.9 °F 1022.9 in Calm     88 % 0.0 in
20:49 0.7 °F -1.1 °F 1022.9 in NNW 0.3 mph 3.2 mph 88 % 0.0 in
20:54 0.6 °F -1.2 °F 1022.9 in NNW 1.1 mph 3.5 mph 88 % 0.0 in
20:59 0.6 °F -1.0 °F 1022.9 in NNW 1.0 mph 3.5 mph 89 % 0.0 in
21:04 0.6 °F -1.0 °F 1022.9 in Calm     89 % 0.0 in
21:08 0.5 °F -1.1 °F 1022.9 in Calm     89 % 0.0 in
21:13 0.5 °F -1.1 °F 1022.9 in Calm     89 % 0.0 in
21:19 0.4 °F -1.2 °F 1022.9 in Calm     89 % 0.0 in
21:24 0.4 °F -1.2 °F 1022.9 in Calm     89 % 0.0 in
21:29 0.3 °F -1.3 °F 1022.9 in Calm     89 % 0.0 in
21:34 0.3 °F -1.3 °F 1022.9 in Calm     89 % 0.0 in
21:39 0.3 °F -1.3 °F 1022.9 in Calm     89 % 0.0 in
21:44 0.2 °F -1.4 °F 1021.9 in Calm     89 % 0.0 in
21:49 0.1 °F -1.5 °F 1021.9 in Calm     89 % 0.0 in
21:54 0.1 °F -1.5 °F 1021.9 in Calm     89 % 0.0 in
21:59 0.0 °F -1.6 °F 1022.9 in Calm     89 % 0.0 in
22:04 0.0 °F -1.6 °F 1022.9 in Calm     89 % 0.0 in
22:09 -0.1 °F -1.7 °F 1022.9 in Calm     89 % 0.0 in
22:14 -0.1 °F -1.7 °F 1022.9 in Calm     89 % 0.0 in
22:16 -0.2 °F -1.8 °F 1022.9 in Calm     89 % 0.0 in
22:21 -0.2 °F -1.7 °F 1022.9 in Calm     90 % 0.0 in
22:26 -0.3 °F -1.7 °F 1021.9 in Calm     90 % 0.0 in
22:31 -0.3 °F -1.7 °F 1021.9 in Calm     90 % 0.0 in
22:36 -0.4 °F -1.8 °F 1021.9 in Calm     90 % 0.0 in
22:41 -0.5 °F -1.9 °F 1023.9 in Calm     90 % 0.0 in
22:46 -0.5 °F -1.9 °F 1023.9 in Calm     90 % 0.0 in
22:51 -0.5 °F -1.9 °F 1023.9 in Calm     90 % 0.0 in
22:56 -0.6 °F -2.1 °F 1022.9 in Calm     90 % 0.0 in
23:01 -0.6 °F -2.1 °F 1022.9 in Calm     90 % 0.0 in
23:06 -0.7 °F -2.1 °F 1022.9 in Calm     90 % 0.0 in
23:11 -0.7 °F -2.1 °F 1022.9 in Calm     90 % 0.0 in
23:16 -0.7 °F -2.1 °F 1022.9 in Calm     90 % 0.0 in
23:21 -0.8 °F -2.2 °F 1022.9 in Calm     90 % 0.0 in
23:26 -0.8 °F -2.2 °F 1022.9 in Calm     90 % 0.0 in
23:31 -0.8 °F -2.2 °F 1022.9 in Calm     90 % 0.0 in
23:36 -0.8 °F -2.2 °F 1022.9 in Calm     90 % 0.0 in
23:41 -0.8 °F -2.2 °F 1022.9 in Calm     90 % 0.0 in
23:46 -0.9 °F -2.3 °F 1022.9 in Calm     90 % 0.0 in
23:51 -0.9 °F -2.3 °F 1022.9 in Calm     90 % 0.0 in
23:56 -0.9 °F -2.2 °F 1022.9 in Calm     91 % 0.0 in
Vremenska postaja Senovo
Podatki zbrani iz Weather Underground - 3 mb

Script developed by  Jim McMurry - jmcmurry@mwt.net Adapted for the template by  Wim van der Kuil - Leuven-Template.eu

Vremenski podatki so objavljeni na:

European Weather Network

WeatherCloud

Weather Underground

AWEKAS

HAMweather, WeatherForYou, PWS Weather

MapView

Geostik

Slovenia weather network

Oprema, ki se uporablja:

Vremenski program
Cumulus

Vremenski server
Asus

Cumulus

Asus